Location: Navajo
(48.7922°N, 105.0603°W)
Time: 16:13:24
(UTC+00:00)

QB50P2 - Pass Details

Date: 04 July 2022
Orbit: 590 x 605 km, 97.9° (Epoch: 06 August)

Event Time Altitude Azimuth Distance (km) Brightness Sun altitude
Rises 10:15:43 0° 355° (N) 2,862 ? -6.7°
Reaches altitude 10° 10:19:28 10° 321° (NW) 1,956 ? -6.2°
Maximum altitude 10:20:40 11° 304° (NW) 1,883 ? -6.1°
Drops below altitude 10° 10:21:53 10° 287° (WNW) 1,955 ? -6.0°
Enters shadow 10:24:51 - 258° (WSW) 2,611 ? -5.6°
